Showing default

COLIBRI-S, 61746

Orbit data source: Space-Track

COLIBRI-S, 61746 is a payload satellite owned by SNIU (CIS) in SSO that was launched on Mon, 04 Nov 2024 UTC via a SOYUZ-2-1B launch vehicle from the Vostochny Cosmodrome (VOSTO). Payload-class satellites include a variety of spacecraft equipped with specific instruments for various scientific and technological missions. These include communications satellites like Starlink; space stations such as the ISS; scientific satellites like the Hubble; Earth observation satellites from companies like Planet Labs, Umbra, and HawkEye 360; GPS; miniature CubeSats for education and research; and military/defense satellites.

Loading next visibility...
Identifier
61746, 2024-199M
Orbit
SSO
Country
Flag of CISCIS
Related business
Manufacturer
Geoskan
Mission
Operational Amateur Imaging
Bus & Motor
CUBESAT 3U, Unknown motor
Mass
3 kg wet, 3 kg dry
Launch date (UTC)
2024-11-04 (2 years ago)
Launch vehicle
SOYUZ-2-1B
Launch site
Vostochny Cosmodrome (VOSTO)
Object type
Payload
Rocket body
Debris
Shape & HBR
Box, 0.2 m
Radar Cross Section
0.035 m², Medium (>0.1 m² and < 1m²)

Expand to show TLE details & history
Last TLE update: 8 hours ago

TLE from 8 hours ago
0 COLIBRI-S
1 61746U 24199M   26264.27637112  .00017970  00000-0  30465-3 0  9993
2 61746  97.2794 139.1815 0005608 299.7768  60.2927 15.51557624152295
Epoch: 2026-09-21T06:37Z
TLE epoch observation values (Epoch: 2026-09-21T06:37:58.464Z)
Latitude
0.00002°
Longitude
39.52938°
Altitude
413.428 km
Speed
7.664 km/s
True Right ascension
09h 16m 43s
True Declination
0° 00' 00"
Sunlit
Object was in daylight at epoch
Visualization orbit readout
Latitude
Unknown
Longitude
Unknown
Altitude
Unknown
Speed
Unknown
Apparent Right ascension
Unknown
Apparent Declination
Unknown
Sunlit
N/A
Visualization observer readout
Local Sidereal Time
08:07:24
Azimuth
Unknown
Elevation
Unknown
Doppler factor
Unknown
Orbital elements
Apogee altitude
412.902 km
Perigee altitude
405.29 km
Semi-major axis
6,787.233 km
Eccentricity
0.00056
Inclination
97.2794°
RAAN
139.1815°
Arg. of periapsis
299.7768°
True anomaly
60.34854°
Mean anomaly
60.2927°
Eccentric anomaly
60.32062°
Mean motion
3.88154 °/min
Orbital period
92.75 mins
BSTAR
0.00030465
Loading maneuver chart data...
Computing Atmospheric mass density...
Loading historical data...
Loading historical data...
Loading historical data...
Loading historical data...
Loading historical data...
Loading historical data...
Loading historical data...

Documentation

Showing up to 5 results
|